Weather History for Kyiv, Ukraine

Change the Weather History Date:

Thursday, February 2, 2012

  Actual Average (UKBB) Record (UKBB)
Temperature  
Mean Temperature -8 °F -  
Max Temperature 0 °F 28 °F 48 °F (2002)
Min Temperature -16 °F 15 °F -27 °F (2012)
Degree Days  
Heating Degree Days 73    
Moisture  
Dew Point -15 °F    
Average Humidity 74    
Maximum Humidity 84    
Minimum Humidity 49    
Precipitation  
Precipitation 0.00 in 0.06 in - ()
Sea Level Pressure  
Sea Level Pressure 30.56 in    
Wind  
Wind Speed 3 mph ()    
Max Wind Speed 7 mph    
Max Gust Speed -    
Visibility 5.9 miles    
Events Snow    
Averages and records for this station are not official NWS values.
T = Trace of Precipitation, MM = Missing Value Source: Averaged Metar Reports

Daily Weather History Graph

Daily Weather History Graph

Search for Another Location

Airport:

Trip Planner

Search our weather history database for the weather conditions in past years. The results will help you decide how hot, cold, wet, or windy it might be!

Date:

Astronomy

Feb. 02, 2012 Rise Set
Actual Time 7:32 AM EET 4:51 PM EET
Civil Twilight 6:57 AM EET 5:26 PM EET
Nautical Twilight 6:18 AM EET 6:06 PM EET
Astronomical Twilight 5:40 AM EET 6:44 PM EET
Moon 11:35 AM EET (2/2) 3:07 AM EET (2/2)
Length of Visible Light 10h 29m
Length of Day
9h 19m
Waxing Gibbous, 71% of the Moon is Illuminated
Feb 2
Waxing Gibbous
Feb 7
Full
Feb 14
Last Quarter
Feb 22
New
Mar 1
First Quarter

Hourly Weather History & Observations

Time (EET) Temp. Windchill Dew Point Humidity Pressure Visibility Wind Dir Wind Speed Gust Speed Precip Events Conditions
12:00 AM -7.6 °F -18.5 °F -13.0 °F 77% 30.54 in - East 4.5 mph - N/A   Clear
12:30 AM -9.4 °F -20.6 °F -14.8 °F 77% 30.54 in - East 4.5 mph - N/A   Clear
1:00 AM -9.4 °F -20.6 °F -14.8 °F 77% 30.54 in - East 4.5 mph - N/A   Clear
1:30 AM -11.2 °F -22.7 °F -14.8 °F 84% 30.54 in 6.2 mi East 4.5 mph - N/A   Partly Cloudy
2:00 AM -9 °F - -13 °F 71% 30.67 in 6 mi ENE 2.2 mph - -   Clear
2:00 AM -11.2 °F -26.2 °F -16.6 °F 77% 30.54 in 3.1 mi East 6.7 mph - N/A   Ice Crystals
2:30 AM -13.0 °F -28.3 °F -18.4 °F 77% 30.54 in 3.1 mi ENE 6.7 mph - N/A   Ice Crystals
3:00 AM -13.0 °F -24.8 °F -16.6 °F 84% 30.54 in 4.3 mi ENE 4.5 mph - N/A   Partly Cloudy
3:30 AM -14.8 °F -26.9 °F -18.4 °F 84% 30.54 in 6.2 mi NE 4.5 mph - N/A   Partly Cloudy
4:00 AM -13.0 °F - -16.6 °F 84% 30.54 in 6.2 mi Variable 2.2 mph - N/A   Partly Cloudy
4:30 AM -11.2 °F -22.7 °F -16.6 °F 77% 30.54 in 6.2 mi ENE 4.5 mph - N/A   Partly Cloudy
5:00 AM -11 °F - -15 °F 74% 30.64 in 6 mi NNE 2.2 mph - -   Clear
5:00 AM -13.0 °F - -16.6 °F 84% 30.51 in 1.4 mi Calm Calm - N/A   Ice Crystals
5:30 AM -13.0 °F - -18.4 °F 77% 30.51 in 4.3 mi SE 2.2 mph - N/A   Partly Cloudy
6:00 AM -18.4 °F - -22.0 °F 84% 30.51 in 5.0 mi Calm Calm - N/A   Partly Cloudy
6:30 AM -14.8 °F - -20.2 °F 77% 30.51 in 5.6 mi West 2.2 mph - N/A   Partly Cloudy
7:00 AM -14.8 °F - -20.2 °F 77% 30.51 in - SW 2.2 mph - N/A   Ice Crystals
7:30 AM -18.4 °F - -22.0 °F 84% 30.51 in 1.7 mi Calm Calm - N/A   Partly Cloudy
8:00 AM -14 °F - -18 °F 73% 30.65 in 12 mi Calm Calm - -   Clear
8:00 AM -16.6 °F - -22.0 °F 76% 30.54 in 3.7 mi Variable 2.2 mph - N/A   Partly Cloudy
8:30 AM -16.6 °F - -22.0 °F 76% 30.54 in 3.1 mi WSW 2.2 mph - N/A   Partly Cloudy
8:51 AM -13.0 °F - -18.4 °F 77% 30.54 in 1.7 mi SSW 2.2 mph - N/A   Partly Cloudy
9:00 AM -13.0 °F - -18.4 °F 77% 30.54 in - Calm Calm - N/A   Smoke
9:30 AM -7.6 °F - -13.0 °F 77% 30.54 in 3.7 mi Calm Calm - N/A   Unknown
10:00 AM -4.0 °F - -9.4 °F 78% 30.54 in 3.1 mi Calm Calm - N/A   Ice Crystals
10:30 AM -5.8 °F - -13.0 °F 71% 30.54 in 5.0 mi Variable 2.2 mph - N/A   Unknown
11:00 AM -6 °F - -11 °F 68% 30.65 in 12 mi East 2.2 mph - -   Clear
11:00 AM -5.8 °F - -11.2 °F 77% 30.54 in 3.1 mi Variable 2.2 mph - N/A   Ice Crystals
11:30 AM -4.0 °F - -11.2 °F 71% 30.54 in 3.7 mi Variable 2.2 mph - N/A   Unknown
12:00 PM -4.0 °F -14.3 °F -11.2 °F 71% 30.54 in 5.0 mi NNE 4.5 mph - N/A   Unknown
12:30 PM -2.2 °F - -11.2 °F 66% 30.54 in 6.2 mi Variable 2.2 mph - N/A   Unknown
1:00 PM -0.4 °F - -11.2 °F 60% 30.54 in - Calm Calm - N/A   Clear
1:30 PM -2.2 °F - -11.2 °F 66% 30.54 in - Variable 2.2 mph - N/A   Clear
2:00 PM -1 °F - -10 °F 49% 30.64 in 12 mi East 2.2 mph - -   Clear
2:00 PM -0.4 °F - -11.2 °F 60% 30.54 in - Variable 2.2 mph - N/A   Clear
2:30 PM -2.2 °F -12.2 °F -11.2 °F 66% 30.54 in - East 4.5 mph - N/A   Clear
3:00 PM -2.2 °F -12.2 °F -11.2 °F 66% 30.54 in 6.2 mi East 4.5 mph - N/A   Mostly Cloudy
3:30 PM -4.0 °F -14.3 °F -13.0 °F 65% 30.54 in 6.2 mi East 4.5 mph - N/A   Mostly Cloudy
4:00 PM -4.0 °F -17.5 °F -11.2 °F 71% 30.54 in - ESE 6.7 mph - N/A   Clear
4:30 PM -4.0 °F -14.3 °F -11.2 °F 71% 30.54 in - ESE 4.5 mph - N/A   Clear
5:00 PM -5 °F - -12 °F 59% 30.66 in 12 mi SSE 2.2 mph - - Snow Light Snow
5:00 PM -5.8 °F -16.4 °F -13.0 °F 71% 30.54 in - ESE 4.5 mph - N/A   Clear
5:30 PM -7.6 °F -18.5 °F -13.0 °F 77% 30.57 in 6.2 mi ESE 4.5 mph - N/A   Scattered Clouds
6:00 PM -7.6 °F -18.5 °F -13.0 °F 77% 30.57 in - SE 4.5 mph - N/A   Clear
6:30 PM -7.6 °F -18.5 °F -14.8 °F 71% 30.57 in - SE 4.5 mph - N/A   Clear
7:00 PM -7.6 °F -18.5 °F -14.8 °F 71% 30.57 in - SE 4.5 mph - N/A   Clear
7:30 PM -7.6 °F - -14.8 °F 71% 30.57 in - East 2.2 mph - N/A   Clear
8:00 PM -9 °F - -14 °F 65% 30.69 in 12 mi Calm Calm - -   Partly Cloudy
8:00 PM -9.4 °F - -14.8 °F 77% 30.57 in - Variable 2.2 mph - N/A   Clear
8:30 PM -9.4 °F - -14.8 °F 77% 30.57 in - ESE 2.2 mph - N/A   Clear
9:00 PM -9.4 °F -20.6 °F -14.8 °F 77% 30.57 in - East 4.5 mph - N/A   Clear
9:30 PM -11.2 °F -22.7 °F -16.6 °F 77% 30.60 in - East 4.5 mph - N/A   Clear
10:00 PM -11.2 °F -22.7 °F -14.8 °F 84% 30.60 in - East 4.5 mph - N/A   Clear
10:30 PM -11.2 °F -22.7 °F -16.6 °F 77% 30.60 in - ESE 4.5 mph - N/A   Clear
11:00 PM -12 °F - -16 °F 70% 30.72 in 12 mi Calm Calm - -  
11:00 PM -11.2 °F - -16.6 °F 77% 30.60 in - East 2.2 mph - N/A   Clear
11:30 PM -13.0 °F -24.8 °F -16.6 °F 84% 30.60 in - East 4.5 mph - N/A   Clear